Location: El Águila
(10.4167°N, 66.7167°W)
Time: 13:55:32
(UTC+00:00)

CZ-4B R/B - Visible Passes

Search period start: 27 March 2023 00:00
Search period end: 06 April 2023 00:00
Orbit: 809 x 881 km, 99.0° (Epoch: 27 March)

Date Brightness Start Highest point End Pass type
(mag) Time Alt. Az. Time Alt. Az. Time Alt. Az.
27 Mar 5.1 00:44:06 10° SSW 00:48:48 27° W 00:53:31 10° NW visible
27 Mar 4.7 22:51:49 10° ESE 22:55:10 16° ENE 22:58:32 10° NE visible
28 Mar 4.5 00:30:08 10° S 00:35:20 39° WSW 00:40:34 10° NW visible
29 Mar 3.9 00:16:22 10° S 00:21:53 55° WSW 00:27:24 10° NNW visible
30 Mar 3.3 00:02:47 10° S 00:08:26 79° WSW 00:14:05 10° NNW visible
30 Mar 3.2 23:49:21 10° SSE 23:55:00 75° ENE 00:00:37 10° N visible
31 Mar 3.4 23:36:05 10° SSE 23:41:34 53° ENE 23:47:01 10° N visible
01 Apr 6.1 01:20:21 10° WSW 01:21:57 11° W 01:23:33 10° W visible
01 Apr 3.8 23:23:00 10° SE 23:28:09 37° ENE 23:33:17 10° N visible
02 Apr 5.8 01:05:00 10° SW 01:08:28 17° W 01:11:58 10° WNW visible
02 Apr 4.2 23:10:06 10° SE 23:14:44 26° ENE 23:19:20 10° NNE visible
03 Apr 5.3 00:50:34 10° SSW 00:55:00 24° WSW 00:59:26 10° NW visible
03 Apr 4.6 22:57:32 10° ESE 23:01:20 19° ENE 23:05:08 10° NNE visible
04 Apr 4.8 00:36:29 10° SSW 00:41:32 34° WSW 00:46:34 10° NW visible
05 Apr 4.1 00:22:39 10° S 00:28:05 48° WSW 00:33:29 10° NNW visible
